Weather History for Lawrence, KS

Change the Weather History Date:

Monday, September 9, 2013

  Actual Average Record
Temperature  
Mean Temperature 85 °F 71 °F  
Max Temperature 98 °F 84 °F 98 °F (2013)
Min Temperature 72 °F 58 °F 46 °F (1999)
Degree Days  
Heating Degree Days 0 1  
Month to date heating degree days 0 2  
Since 1 July heating degree days 0 5  
Cooling Degree Days 20 7  
Month to date cooling degree days 117 70  
Year to date cooling degree days 1338 1261  
Growing Degree Days 36 (Base 50)    
Moisture  
Dew Point 63 °F    
Average Humidity 52    
Maximum Humidity 74    
Minimum Humidity 29    
Precipitation  
Precipitation 0.00 in 0.16 in 0.13 in (2011)
Month to date precipitation 0.00 1.52  
Year to date precipitation 20.28 29.38  
Sea Level Pressure  
Sea Level Pressure 29.88 in    
Wind  
Wind Speed 8 mph (SSW)    
Max Wind Speed 23 mph    
Max Gust Speed 31 mph    
Visibility 10 miles    
Events      
T = Trace of Precipitation, MM = Missing Value Source: NWS Daily Summary

Daily Weather History Graph

Daily Weather History Graph

Search for Another Location

Airport:

Trip Planner

Search our weather history database for the weather conditions in past years. The results will help you decide how hot, cold, wet, or windy it might be!

Date:

Astronomy

Sep. 09, 2013 Rise Set
Actual Time 6:57 AM CDT 7:38 PM CDT
Civil Twilight 6:30 AM CDT 8:05 PM CDT
Nautical Twilight 5:58 AM CDT 8:37 PM CDT
Astronomical Twilight 5:25 AM CDT 9:09 PM CDT
Moon 11:17 AM CDT (9/9) 9:58 PM CDT (9/9)
Length of Visible Light 13h 35m
Length of Day
12h 41m
Waxing Crescent, 19% of the Moon is Illuminated
Sep 9
Waxing Crescent
Sep 12
First Quarter
Sep 19
Full
Sep 26
Last Quarter
Oct 4
New

Hourly Weather History & Observations

Time (CDT) Temp. Heat Index Dew Point Humidity Pressure Visibility Wind Dir Wind Speed Gust Speed Precip Events Conditions
12:52 AM 81.0 °F 82.7 °F 64.9 °F 58% 29.84 in 10.0 mi SSW 4.6 mph - N/A   Clear
1:52 AM 81.0 °F 82.7 °F 64.9 °F 58% 29.85 in 10.0 mi SSW 5.8 mph - N/A   Clear
2:52 AM 75.0 °F - 66.0 °F 73% 29.85 in 10.0 mi Calm Calm - N/A   Clear
3:52 AM 73.9 °F - 64.9 °F 73% 29.85 in 9.0 mi East 3.5 mph - N/A   Clear
4:52 AM 73.0 °F - 64.9 °F 76% 29.86 in 9.0 mi ESE 4.6 mph - N/A   Clear
5:52 AM 73.9 °F - 64.0 °F 71% 29.87 in 10.0 mi Calm Calm - N/A   Clear
6:52 AM 75.9 °F - 63.0 °F 64% 29.88 in 10.0 mi Calm Calm - N/A   Clear
7:52 AM 75.9 °F - 64.0 °F 67% 29.89 in 9.0 mi Calm Calm - N/A   Clear
8:52 AM 81.0 °F 82.5 °F 64.0 °F 56% 29.90 in 10.0 mi SSW 4.6 mph - N/A   Clear
9:52 AM 84.9 °F 86.6 °F 64.9 °F 51% 29.91 in 10.0 mi WSW 6.9 mph - N/A   Clear
10:52 AM 90.0 °F 91.3 °F 64.0 °F 42% 29.91 in 10.0 mi SW 11.5 mph 19.6 mph N/A   Clear
11:52 AM 93.0 °F 95.0 °F 64.9 °F 39% 29.91 in 10.0 mi WSW 10.4 mph - N/A   Clear
12:52 PM 95.0 °F 95.6 °F 62.1 °F 33% 29.89 in 10.0 mi SW 20.7 mph 25.3 mph N/A   Clear
1:52 PM 96.1 °F 96.9 °F 62.1 °F 32% 29.88 in 10.0 mi SW 17.3 mph 21.9 mph N/A   Clear
2:52 PM 97.0 °F 97.4 °F 61.0 °F 30% 29.86 in 10.0 mi SSW 19.6 mph 27.6 mph N/A   Clear
3:52 PM 98.1 °F 98.6 °F 61.0 °F 29% 29.86 in 10.0 mi SW 15.0 mph 23.0 mph N/A   Clear
4:52 PM 96.1 °F 96.4 °F 61.0 °F 31% 29.85 in 10.0 mi SSW 13.8 mph 23.0 mph N/A   Clear
5:52 PM 93.9 °F 93.6 °F 60.1 °F 32% 29.86 in 10.0 mi SSW 9.2 mph - N/A   Clear
6:52 PM 91.0 °F 90.5 °F 60.1 °F 35% 29.86 in 10.0 mi South 9.2 mph - N/A   Clear
7:52 PM 84.9 °F 84.8 °F 60.1 °F 43% 29.87 in 10.0 mi South 6.9 mph - N/A   Clear
8:52 PM 82.0 °F 82.4 °F 60.1 °F 47% 29.88 in 10.0 mi South 4.6 mph - N/A   Clear
9:52 PM 75.0 °F - 63.0 °F 66% 29.90 in 10.0 mi SSE 4.6 mph - N/A   Clear
10:52 PM 73.0 °F - 63.0 °F 71% 29.91 in 10.0 mi SE 4.6 mph - N/A   Clear
11:52 PM 72.0 °F - 63.0 °F 73% 29.93 in 10.0 mi South 3.5 mph - N/A   Clear